Regional Weather Roundup
Issued by NWS Sioux Falls, SD

Home | Current Version | Previous Version | Text Only | Print | Product List | Glossary On
Versions: 1 2 3 4 5 6 7 8 9 10 11 12 13 14 15 16 17 18 19 20 21 22 23 24 25 26 27 28 29 30 31 32 33 34 35 36 37 38 39 40 41 42 43 44 45 46 47 48 49 50
000
ASUS43 KFSD 220102
RWRFSD

WEATHER ROUNDUP FOR SE SOUTH DAKOTA/SW MINNESOTA/NW IOWA
NATIONAL WEATHER SERVICE SIOUX FALLS SD
800 PM CDT MON AUG 21 2017

NOTE: "FAIR" INDICATES FEW OR NO CLOUDS BELOW 12,000 FEET WITH NO
SIGNIFICANT WEATHER AND OR OBSTRUCTIONS TO VISIBILITY.


SDZ038>040-050-052>070-220200-
SOUTHEAST SOUTH DAKOTA

CITY           SKY/WX    TMP DP  RH WIND       PRES   REMARKS
BROOKINGS      MOCLDY    70  64  81 W5        29.98S
CHAMBERLAIN    CLEAR     76  63  63 NW8       30.02R
HURON          CLEAR     73  63  70 N5        29.97R
MADISON        FAIR      70  68  94 W5        29.99S
MITCHELL       PTCLDY    73  66  78 CALM      29.98F
SIOUX FALLS    CLOUDY    70  66  87 W5        29.98S
WINNER         FAIR      75  62  64 N10       30.05R
YANKTON        CLOUDY    69  65  86 E3        30.00R
$$

MNZ071-072-080-081-089-090-097-098-220200-
SOUTHWEST MINNESOTA

CITY           SKY/WX    TMP DP  RH WIND       PRES   REMARKS
FAIRMONT       CLOUDY    66  63  90 W8        29.93S
JACKSON        CLOUDY    64  63  94 W8        29.96F
LUVERNE        CLOUDY    66  61  82 SW6       29.99S
MARSHALL       PTCLDY    69  65  86 SW8       29.94S
MONTEVIDEO     CLEAR     70  68  94 W3        29.92S
PIPESTONE      PTCLDY    68  64  88 SW5       29.98S
REDWOOD FALLS  CLOUDY    71  64  78 W9        29.91S
TRACY          CLOUDY    70  67  88 SW12      29.95S
WINDOM         CLOUDY    66  63  88 SW10      29.95F
WORTHINGTON    CLOUDY    66  63  90 SW7       29.98F
$$

IAZ001>003-012>014-020>022-031-032-NEZ013-014-SDZ071-220200-
NORTHWEST IOWA

CITY           SKY/WX    TMP DP  RH WIND       PRES   REMARKS
CHEROKEE       CLOUDY    64  64 100 NW5       30.00R
DENISON        CLOUDY    68  63  83 NE8       30.01R
ESTHERVILLE    CLOUDY    64  64 100 W7        29.95R
ORANGE CITY    CLOUDY    66  64  94 CALM      29.99S
SHELDON        CLOUDY    64  63  94 CALM      29.97S
SIOUX CITY     LGT RAIN  66  66 100 SW5       29.97F
SPENCER        CLOUDY    65  63  93 W6        29.98R
STORM LAKE     CLOUDY    64  63  94 SW7       29.98R
$$

ABBREVIATIONS USED IN REMARKS
   TC - TEMPERATURE IN CELSIUS
  WCI - WIND CHILL INDEX
   HX - HEAT INDEX
  VSB - VISIBILITY





USA.gov is the U.S. government's official web portal to all federal, state and local government web resources and services.